STARLINK-1899 (46787 NORAD) Tracking and Keplerian Element Data

This shows tracking and keplerian element data for the satellite.

Feedback or suggestion? Click here.




ElementValue
Catalog46787
NameSTARLINK-1899
Epoch Orbit177
Epoch Day14.91667824
Epoch Year2021
RAAN117.4971
Inclination53.0541
Eccentricity0.0002753
Argument of Perigee11.3431
Mean Anonmoly159.4478
Mean Motion15.62755403
Decay Rate-4.471E-05
L11 46787U 20074BA 21014.91667824 -.00004471 00000-0 -42987-4 0 9998
L22 46787 53.0541 117.4971 0002753 11.3431 159.4478 15.62755403 1773

Live tracking and technical data element details for STARLINK-1899 (NORAD 46787). STARLINK-1899 can be tracked NOW for your location showing map with azimuth and elevation plus other details from your city location.

Track the satellite on the map from your city or location and see movement details for azimuth, elevation, latitude, longitude, range, height, and movement on the map or in text.







IsCatalogInMostPopularTable: catalog: 46787, numindb: 29
Update: records affected: 1



GetName: 46787 STARLINK-1899

Hit Count: updated at: Sat, 16 Jan 2021 00:10:16 GMT